Location: Buch
(49.7331°N, 12.1098°E)
Time: 23:38:10
(UTC+00:00)

BREEZE-M R/B - Pass Details

Date: 12 May 2021
Orbit: 311 x 4501 km, 49.7° (Epoch: 17 June)

Event Time Altitude Azimuth Distance (km) Brightness Sun altitude
Rises 22:04:58 0° 279° (W) 2,039 6.1 -20.5°
Reaches altitude 10° 22:06:38 10° 277° (W) 1,261 4.9 -20.6°
Enters shadow 22:07:33 21° 274° (W) 862 4.0 -20.6°
